DAL1138 KDEN-KOMA

Flight info

Callsign DAL1138
Flight time 1h 14m
Altitude 35000
Route CHUWY1 CHUWY KUTCH WYYTE BRKSR AANDY2
Aircraft A321/M-SDE3FGHIRWY/LB1

Departure

Time 2026-05-04 12:26
Airport Denver International Airport (KDEN)

Arrival

Time 2026-05-04 13:40
Airport Eppley Airfield (KOMA)
Time Latitude Longitude Altitude Speed Heading
2026-05-04 11:12 39.85449 -104.67119 5393 ft 0 kts 180°
2026-05-04 12:09 39.85456 -104.67119 5380 ft 4 kts 179°
2026-05-04 12:09 39.85483 -104.67121 5380 ft 4 kts 175°
2026-05-04 12:10 39.85509 -104.67127 5380 ft 4 kts 159°
2026-05-04 12:10 39.85532 -104.67143 5381 ft 4 kts 128°
2026-05-04 12:10 39.85540 -104.67168 5381 ft 1 kts 90°
2026-05-04 12:13 39.85543 -104.67160 5383 ft 4 kts 66°
2026-05-04 12:14 39.85585 -104.66416 5386 ft 7 kts 90°
2026-05-04 12:15 39.85584 -104.66327 5391 ft 12 kts 90°
2026-05-04 12:15 39.85604 -104.66252 5393 ft 8 kts 41°
2026-05-04 12:15 39.85690 -104.66236 5391 ft 16 kts
2026-05-04 12:15 39.85804 -104.66234 5388 ft 16 kts
2026-05-04 12:16 39.85907 -104.66232 5388 ft 14 kts
2026-05-04 12:16 39.85993 -104.66231 5387 ft 12 kts
2026-05-04 12:16 39.86070 -104.66225 5386 ft 11 kts 15°
2026-05-04 12:16 39.86103 -104.66170 5385 ft 4 kts 80°
2026-05-04 12:17 39.86103 -104.66166 5385 ft 0 kts 84°
2026-05-04 12:17 39.86105 -104.66138 5385 ft 13 kts 87°
2026-05-04 12:17 39.86100 -104.66026 5385 ft 7 kts 129°
2026-05-04 12:18 39.86076 -104.66016 5386 ft 0 kts 176°
2026-05-04 12:25 39.86009 -104.66016 5387 ft 36 kts 180°
2026-05-04 12:25 39.85511 -104.66024 5397 ft 103 kts 181°
2026-05-04 12:25 39.84603 -104.66039 5413 ft 155 kts 181°
2026-05-04 12:25 39.83405 -104.66055 5692 ft 180 kts 181°
2026-05-04 12:26 39.82143 -104.65991 6459 ft 184 kts 172°
2026-05-04 12:26 39.81067 -104.65108 7026 ft 192 kts 123°
2026-05-04 12:26 39.80769 -104.63369 7372 ft 211 kts 76°
2026-05-04 12:26 39.81528 -104.61705 7665 ft 226 kts 34°
2026-05-04 12:27 39.82995 -104.60797 7921 ft 245 kts 18°
2026-05-04 12:27 39.84670 -104.60005 8057 ft 267 kts 17°
2026-05-04 12:27 39.86481 -104.59160 8295 ft 284 kts 18°
2026-05-04 12:27 39.88352 -104.58272 8846 ft 288 kts 18°
2026-05-04 12:28 39.90240 -104.57362 9477 ft 291 kts 18°
2026-05-04 12:28 39.92143 -104.56434 10078 ft 293 kts 18°
2026-05-04 12:28 39.94108 -104.55471 10267 ft 312 kts 18°
2026-05-04 12:28 39.96204 -104.54442 10385 ft 332 kts 18°
2026-05-04 12:29 39.98424 -104.53350 10486 ft 350 kts 19°
2026-05-04 12:29 40.00749 -104.52201 10769 ft 362 kts 19°
2026-05-04 12:29 40.03115 -104.51025 11273 ft 366 kts 19°
2026-05-04 12:29 40.05501 -104.49835 11836 ft 368 kts 19°
2026-05-04 12:30 40.07901 -104.48637 12361 ft 371 kts 18°
2026-05-04 12:30 40.10316 -104.47431 12975 ft 373 kts 18°
2026-05-04 12:30 40.12744 -104.46222 13570 ft 375 kts 18°
2026-05-04 12:30 40.15194 -104.45004 14090 ft 378 kts 18°
2026-05-04 12:31 40.17658 -104.43780 14598 ft 380 kts 18°
2026-05-04 12:31 40.20172 -104.42532 15122 ft 383 kts 18°
2026-05-04 12:31 40.22673 -104.41291 15609 ft 385 kts 18°
2026-05-04 12:31 40.25186 -104.40037 16102 ft 388 kts 18°
2026-05-04 12:32 40.27716 -104.38772 16594 ft 390 kts 18°
2026-05-04 12:32 40.32821 -104.36219 17545 ft 395 kts 18°
2026-05-04 12:32 40.35399 -104.34930 17999 ft 398 kts 18°
2026-05-04 12:33 40.37997 -104.33631 18417 ft 400 kts 18°
2026-05-04 12:33 40.40605 -104.32323 18797 ft 403 kts 18°
2026-05-04 12:33 40.43235 -104.31002 19171 ft 406 kts 17°
2026-05-04 12:33 40.45874 -104.29678 19553 ft 409 kts 17°
2026-05-04 12:34 40.48542 -104.28340 19902 ft 412 kts 17°
2026-05-04 12:34 40.51224 -104.26997 20259 ft 414 kts 17°
2026-05-04 12:34 40.53930 -104.25638 20617 ft 417 kts 17°
2026-05-04 12:34 40.56562 -104.23970 20967 ft 425 kts 27°
2026-05-04 12:35 40.58981 -104.21684 21319 ft 433 kts 37°
2026-05-04 12:35 40.61122 -104.18854 21679 ft 438 kts 44°
2026-05-04 12:35 40.63185 -104.15894 22042 ft 441 kts 44°
2026-05-04 12:35 40.65267 -104.12925 22420 ft 443 kts 43°
2026-05-04 12:36 40.67374 -104.09930 22763 ft 446 kts 43°
2026-05-04 12:36 40.69486 -104.06921 23101 ft 449 kts 43°
2026-05-04 12:36 40.71607 -104.03891 23441 ft 451 kts 43°
2026-05-04 12:36 40.73744 -104.00834 23730 ft 454 kts 43°
2026-05-04 12:37 40.75889 -103.97763 24029 ft 457 kts 43°
2026-05-04 12:37 40.78046 -103.94668 24301 ft 459 kts 43°
2026-05-04 12:37 40.80211 -103.91562 24541 ft 462 kts 43°
2026-05-04 12:37 40.82389 -103.88435 24805 ft 464 kts 43°
2026-05-04 12:38 40.84580 -103.85280 25088 ft 466 kts 43°
2026-05-04 12:38 40.86770 -103.82121 25397 ft 468 kts 43°
2026-05-04 12:38 40.88977 -103.78937 25664 ft 470 kts 43°
2026-05-04 12:38 40.91183 -103.75749 25889 ft 473 kts 43°
2026-05-04 12:39 40.93440 -103.72479 26160 ft 475 kts 43°
2026-05-04 12:39 40.95640 -103.69293 26428 ft 477 kts 43°
2026-05-04 12:39 40.97918 -103.65992 26706 ft 479 kts 43°
2026-05-04 12:39 41.00134 -103.62775 26943 ft 481 kts 43°
2026-05-04 12:40 41.02418 -103.59456 27217 ft 483 kts 43°
2026-05-04 12:40 41.04685 -103.56165 27470 ft 485 kts 43°
2026-05-04 12:40 41.06961 -103.52862 27713 ft 487 kts 43°
2026-05-04 12:40 41.09247 -103.49541 27961 ft 489 kts 43°
2026-05-04 12:41 41.11538 -103.46204 28203 ft 490 kts 43°
2026-05-04 12:41 41.13831 -103.42855 28528 ft 490 kts 43°
2026-05-04 12:41 41.16118 -103.39506 28846 ft 489 kts 43°
2026-05-04 12:41 41.18398 -103.36162 29151 ft 489 kts 43°
2026-05-04 12:42 41.20680 -103.32805 29462 ft 489 kts 43°
2026-05-04 12:42 41.22955 -103.29461 29786 ft 488 kts 43°
2026-05-04 12:42 41.25233 -103.26115 30056 ft 488 kts 43°
2026-05-04 12:42 41.27510 -103.22773 30333 ft 487 kts 43°
2026-05-04 12:43 41.29781 -103.19436 30601 ft 486 kts 43°
2026-05-04 12:43 41.32045 -103.16110 30887 ft 486 kts 43°
2026-05-04 12:43 41.34314 -103.12771 31188 ft 485 kts 43°
2026-05-04 12:43 41.36570 -103.09442 31508 ft 484 kts 43°
2026-05-04 12:44 41.38819 -103.06116 31789 ft 483 kts 43°
2026-05-04 12:44 41.41068 -103.02791 32069 ft 483 kts 43°
2026-05-04 12:44 41.43313 -102.99466 32347 ft 482 kts 43°
2026-05-04 12:44 41.45549 -102.96152 32623 ft 481 kts 43°
2026-05-04 12:45 41.47773 -102.92815 32927 ft 482 kts 46°
2026-05-04 12:45 41.49726 -102.89153 33185 ft 488 kts 55°
2026-05-04 12:45 41.51268 -102.85094 33442 ft 493 kts 64°
2026-05-04 12:45 41.52352 -102.80743 33691 ft 496 kts 73°
2026-05-04 12:46 41.53112 -102.76248 33926 ft 497 kts 75°
2026-05-04 12:46 41.53863 -102.71748 34119 ft 497 kts 75°
2026-05-04 12:46 41.54618 -102.67244 34322 ft 497 kts 75°
2026-05-04 12:46 41.55370 -102.62740 34529 ft 497 kts 75°
2026-05-04 12:47 41.55875 -102.59698 34674 ft 497 kts 75°
2026-05-04 12:47 41.57360 -102.50690 34760 ft 496 kts 75°
2026-05-04 12:48 41.58833 -102.41708 34774 ft 495 kts 75°
2026-05-04 12:48 41.60299 -102.32740 34760 ft 494 kts 75°
2026-05-04 12:49 41.61764 -102.23773 34764 ft 494 kts 75°
2026-05-04 12:49 41.63219 -102.14803 34752 ft 494 kts 75°
2026-05-04 12:50 41.64649 -102.05834 34750 ft 494 kts 75°
2026-05-04 12:50 41.66080 -101.96866 34753 ft 493 kts 75°
2026-05-04 12:51 41.67515 -101.87897 34747 ft 493 kts 75°
2026-05-04 12:51 41.68941 -101.78937 34742 ft 492 kts 75°
2026-05-04 12:52 41.70349 -101.69973 34733 ft 492 kts 75°
2026-05-04 12:52 41.71752 -101.61002 34754 ft 492 kts 76°
2026-05-04 12:53 41.73152 -101.51989 34752 ft 491 kts 76°
2026-05-04 12:53 41.74537 -101.43054 34743 ft 490 kts 76°
2026-05-04 12:54 41.75918 -101.34116 34738 ft 490 kts 76°
2026-05-04 12:54 41.77277 -101.25176 34747 ft 489 kts 76°
2026-05-04 12:55 41.78631 -101.16248 34748 ft 488 kts 76°
2026-05-04 12:55 41.79982 -101.07348 34744 ft 488 kts 76°
2026-05-04 12:56 41.80993 -100.98356 34735 ft 489 kts 83°
2026-05-04 12:56 41.81635 -100.89293 34746 ft 489 kts 83°
2026-05-04 12:57 41.82268 -100.80229 34755 ft 489 kts 83°
2026-05-04 12:57 41.82905 -100.71151 34763 ft 488 kts 83°
2026-05-04 12:58 41.83531 -100.62086 34772 ft 489 kts 83°
2026-05-04 12:58 41.84150 -100.53018 34791 ft 488 kts 83°
2026-05-04 12:59 41.84758 -100.43944 34777 ft 488 kts 83°
2026-05-04 12:59 41.85360 -100.34881 34760 ft 488 kts 83°
2026-05-04 13:00 41.85958 -100.25758 34699 ft 487 kts 83°
2026-05-04 13:00 41.86549 -100.16703 34710 ft 487 kts 83°
2026-05-04 13:01 41.87137 -100.07642 34707 ft 487 kts 83°
2026-05-04 13:01 41.87710 -99.98586 34703 ft 487 kts 83°
2026-05-04 13:02 41.88275 -99.89528 34697 ft 487 kts 83°
2026-05-04 13:02 41.88834 -99.80476 34705 ft 487 kts 83°
2026-05-04 13:03 41.89387 -99.71422 34695 ft 487 kts 84°
2026-05-04 13:03 41.89929 -99.62358 34691 ft 487 kts 84°
2026-05-04 13:04 41.90466 -99.53294 34692 ft 487 kts 84°
2026-05-04 13:04 41.90990 -99.44217 34697 ft 487 kts 84°
2026-05-04 13:05 41.91517 -99.35146 34691 ft 488 kts 84°
2026-05-04 13:05 41.92042 -99.26061 34686 ft 488 kts 84°
2026-05-04 13:06 41.92552 -99.16977 34689 ft 488 kts 84°
2026-05-04 13:06 41.93067 -99.07890 34703 ft 488 kts 83°
2026-05-04 13:07 41.93631 -98.98804 34701 ft 488 kts 83°
2026-05-04 13:07 41.94202 -98.89708 34696 ft 489 kts 83°
2026-05-04 13:08 41.94755 -98.80618 34685 ft 489 kts 83°
2026-05-04 13:08 41.95301 -98.71450 34698 ft 489 kts 83°
2026-05-04 13:09 41.95828 -98.62340 34708 ft 489 kts 83°
2026-05-04 13:09 41.96338 -98.53229 34704 ft 489 kts 83°
2026-05-04 13:10 41.96853 -98.44123 34699 ft 489 kts 83°
2026-05-04 13:10 41.97366 -98.35009 34702 ft 489 kts 83°
2026-05-04 13:11 41.97865 -98.25903 34714 ft 489 kts 83°
2026-05-04 13:11 41.98360 -98.16796 34706 ft 489 kts 84°
2026-05-04 13:12 41.98844 -98.07687 34712 ft 488 kts 84°
2026-05-04 13:12 41.99318 -97.98584 34707 ft 488 kts 84°
2026-05-04 13:13 41.99791 -97.89476 34717 ft 488 kts 84°
2026-05-04 13:13 42.00259 -97.80385 34708 ft 488 kts 84°
2026-05-04 13:14 42.00707 -97.71298 34693 ft 487 kts 84°
2026-05-04 13:14 42.01152 -97.62209 34693 ft 487 kts 84°
2026-05-04 13:15 42.01601 -97.53056 34702 ft 487 kts 84°
2026-05-04 13:15 42.02035 -97.43979 34717 ft 487 kts 84°
2026-05-04 13:16 42.02459 -97.34898 34709 ft 486 kts 84°
2026-05-04 13:16 42.02885 -97.25789 33814 ft 493 kts 84°
2026-05-04 13:16 42.03097 -97.21202 32590 ft 489 kts 84°
2026-05-04 13:17 42.03308 -97.16652 31994 ft 486 kts 81°
2026-05-04 13:17 42.03534 -97.12120 31023 ft 489 kts 85°
2026-05-04 13:17 42.03740 -97.07540 30035 ft 491 kts 85°
2026-05-04 13:17 42.03931 -97.02933 28916 ft 496 kts 85°
2026-05-04 13:18 42.04114 -96.98336 28458 ft 488 kts 85°
2026-05-04 13:18 42.04296 -96.93792 27767 ft 486 kts 85°
2026-05-04 13:18 42.04482 -96.89263 27129 ft 483 kts 85°
2026-05-04 13:18 42.04672 -96.84773 26491 ft 480 kts 85°
2026-05-04 13:19 42.04863 -96.80306 25866 ft 477 kts 85°
2026-05-04 13:19 42.04987 -96.77362 25457 ft 476 kts 85°
2026-05-04 13:19 42.05235 -96.71441 24632 ft 472 kts 85°
2026-05-04 13:19 42.05417 -96.67034 24013 ft 470 kts 85°
2026-05-04 13:20 42.05596 -96.62653 23406 ft 468 kts 85°
2026-05-04 13:20 42.05716 -96.59696 22960 ft 467 kts 85°
2026-05-04 13:20 42.05889 -96.55358 22362 ft 462 kts 85°
2026-05-04 13:20 42.06056 -96.51072 21822 ft 457 kts 85°
2026-05-04 13:21 42.06220 -96.46817 21281 ft 452 kts 85°
2026-05-04 13:21 42.06379 -96.42624 20780 ft 446 kts 86°
2026-05-04 13:21 42.06533 -96.38479 20281 ft 441 kts 86°
2026-05-04 13:21 42.06685 -96.34383 19804 ft 436 kts 86°
2026-05-04 13:22 42.06836 -96.30332 19328 ft 431 kts 86°
2026-05-04 13:22 42.06725 -96.26327 18864 ft 427 kts 100°
2026-05-04 13:22 42.05867 -96.22536 18402 ft 421 kts 117°
2026-05-04 13:22 42.04324 -96.19249 17946 ft 413 kts 133°
2026-05-04 13:23 42.02236 -96.16656 17432 ft 403 kts 149°
2026-05-04 13:23 41.99823 -96.14930 17249 ft 385 kts 163°
2026-05-04 13:23 41.97328 -96.13715 16853 ft 379 kts 164°
2026-05-04 13:23 41.94852 -96.12529 16405 ft 376 kts 164°
2026-05-04 13:24 41.92395 -96.11362 15964 ft 374 kts 164°
2026-05-04 13:24 41.89975 -96.10211 15791 ft 364 kts 164°
2026-05-04 13:24 41.87573 -96.09071 15716 ft 367 kts 164°
2026-05-04 13:25 41.82757 -96.06797 15570 ft 367 kts 165°
2026-05-04 13:25 41.80350 -96.05631 15477 ft 368 kts 163°
2026-05-04 13:25 41.77960 -96.04398 15396 ft 368 kts 162°
2026-05-04 13:25 41.75585 -96.03134 15307 ft 368 kts 162°
2026-05-04 13:26 41.73212 -96.01855 15236 ft 367 kts 162°
2026-05-04 13:26 41.70846 -96.00579 15132 ft 367 kts 162°
2026-05-04 13:26 41.68479 -95.99314 14754 ft 366 kts 162°
2026-05-04 13:26 41.66119 -95.98065 14318 ft 364 kts 162°
2026-05-04 13:27 41.63775 -95.96793 13884 ft 363 kts 160°
2026-05-04 13:27 41.61482 -95.95387 13424 ft 363 kts 157°
2026-05-04 13:27 41.59228 -95.93890 12948 ft 361 kts 156°
2026-05-04 13:27 41.56996 -95.92354 12509 ft 359 kts 155°
2026-05-04 13:28 41.54786 -95.90829 12123 ft 355 kts 156°
2026-05-04 13:28 41.52621 -95.89352 11992 ft 344 kts 156°
2026-05-04 13:28 41.50521 -95.87936 11856 ft 333 kts 156°
2026-05-04 13:28 41.48482 -95.86578 11732 ft 322 kts 157°
2026-05-04 13:29 41.46480 -95.85258 11613 ft 312 kts 157°
2026-05-04 13:29 41.44568 -95.84003 11492 ft 302 kts 157°
2026-05-04 13:29 41.42709 -95.82786 11360 ft 292 kts 159°
2026-05-04 13:29 41.40834 -95.81918 11082 ft 283 kts 169°
2026-05-04 13:30 41.38939 -95.81211 10761 ft 281 kts 168°
2026-05-04 13:30 41.37130 -95.80101 10452 ft 290 kts 148°
2026-05-04 13:30 41.35531 -95.78501 10159 ft 285 kts 144°
2026-05-04 13:30 41.33988 -95.76881 9856 ft 281 kts 144°
2026-05-04 13:31 41.32457 -95.75270 9576 ft 280 kts 143°
2026-05-04 13:31 41.30939 -95.73675 9218 ft 277 kts 144°
2026-05-04 13:31 41.29434 -95.72094 8835 ft 274 kts 144°
2026-05-04 13:31 41.27943 -95.70526 8478 ft 272 kts 144°
2026-05-04 13:32 41.26466 -95.68971 8126 ft 270 kts 143°
2026-05-04 13:32 41.25002 -95.67426 7774 ft 268 kts 144°
2026-05-04 13:32 41.23552 -95.65885 7419 ft 266 kts 143°
2026-05-04 13:32 41.22114 -95.64356 7097 ft 264 kts 143°
2026-05-04 13:33 41.20600 -95.63039 6745 ft 257 kts 161°
2026-05-04 13:33 41.18898 -95.62582 6433 ft 247 kts 186°
2026-05-04 13:33 41.17268 -95.63047 6121 ft 235 kts 210°
2026-05-04 13:33 41.15967 -95.64255 5761 ft 225 kts 231°
2026-05-04 13:34 41.15122 -95.65946 5402 ft 217 kts 251°
2026-05-04 13:34 41.14747 -95.67829 5206 ft 204 kts 261°
2026-05-04 13:34 41.14457 -95.69597 5082 ft 187 kts 261°
2026-05-04 13:34 41.14368 -95.71245 4947 ft 171 kts 276°
2026-05-04 13:35 41.14564 -95.72683 4772 ft 151 kts 283°
2026-05-04 13:35 41.15795 -95.74676 5109 ft 151 kts 319°
2026-05-04 13:35 41.16404 -95.75780 4865 ft 151 kts 290°
2026-05-04 13:36 41.16946 -95.76944 4574 ft 155 kts 324°
2026-05-04 13:36 41.17963 -95.77402 4365 ft 154 kts 338°
2026-05-04 13:36 41.18834 -95.78191 4030 ft 153 kts 315°
2026-05-04 13:36 41.19720 -95.79067 3428 ft 163 kts 322°
2026-05-04 13:37 41.20653 -95.79918 3106 ft 159 kts 320°
2026-05-04 13:37 41.21554 -95.80759 2898 ft 158 kts 320°
2026-05-04 13:37 41.22446 -95.81599 2675 ft 156 kts 319°
2026-05-04 13:37 41.23036 -95.82156 2551 ft 158 kts 319°
2026-05-04 13:38 41.24227 -95.83283 2267 ft 157 kts 319°
2026-05-04 13:38 41.25120 -95.84129 2067 ft 157 kts 320°
2026-05-04 13:38 41.26010 -95.84971 1867 ft 156 kts 321°
2026-05-04 13:38 41.26888 -95.85803 1658 ft 153 kts 322°
2026-05-04 13:39 41.27749 -95.86619 1450 ft 151 kts 323°
2026-05-04 13:39 41.28594 -95.87421 1263 ft 149 kts 324°
2026-05-04 13:39 41.29434 -95.88218 1053 ft 148 kts 324°
2026-05-04 13:39 41.30185 -95.88932 991 ft 79 kts 324°
2026-05-04 13:40 41.30455 -95.89188 990 ft 53 kts 325°
2026-05-04 13:40 41.30720 -95.89437 995 ft 44 kts 324°
2026-05-04 13:40 41.30936 -95.89648 992 ft 33 kts 322°
2026-05-04 13:40 41.30971 -95.89793 991 ft 14 kts 241°
2026-05-04 13:41 41.30918 -95.89898 991 ft 12 kts 234°
2026-05-04 13:41 41.30874 -95.89981 992 ft 10 kts 234°
2026-05-04 13:41 41.30807 -95.90104 988 ft 19 kts 234°
2026-05-04 13:42 41.30683 -95.90124 992 ft 16 kts 143°
2026-05-04 13:42 41.30595 -95.90040 989 ft 15 kts 144°
2026-05-04 13:42 41.30513 -95.89962 993 ft 16 kts 144°
2026-05-04 13:42 41.30383 -95.89838 991 ft 26 kts 144°
2026-05-04 13:43 41.30250 -95.89712 988 ft 20 kts 144°
2026-05-04 13:43 41.30134 -95.89611 987 ft 19 kts 163°
2026-05-04 13:43 41.30008 -95.89607 989 ft 18 kts 180°
2026-05-04 13:43 41.29891 -95.89607 987 ft 16 kts 180°
2026-05-04 13:44 41.29813 -95.89616 989 ft 2 kts 220°
2026-05-04 13:44 41.29805 -95.89626 991 ft 1 kts 225°
2026-05-04 13:44 41.29797 -95.89652 985 ft 3 kts 271°
2026-05-04 13:44 41.29816 -95.89698 991 ft 8 kts 293°
2026-05-04 13:45 41.29818 -95.89753 988 ft 3 kts 267°
2026-05-04 13:45 41.29817 -95.89769 987 ft 1 kts 266°